This demonstration page uses our WeatherBlox Daily Observations layout. Learn more.

40.92945, -100.16068

Hourly Observations for March 19, 2015

Temp ( °F °C ) Dew Point ( °F °C ) Humidity (%) Winds ( mph kmh ) Pressure ( in mb ) Visibility ( mi km ) Precip ( " mm )
12:15 am 00:15 Clear 40 4.7 28 -2.5 60 60 SE 7 11 30.09 1019 10 16.0934 N/A
12:35 am 00:35 Clear 40 4.3 28 -2.5 62 62 SSE 6 9 30.09 1019 10 16.0934 N/A
12:55 am 00:55 Clear 39 3.9 28 -2.5 63 63 SE 5 7 30.09 1019 10 16.0934 N/A
1:15 am 01:15 Clear 38 3.6 28 -2.5 65 65 SE 5 7 30.09 1019 10 16.0934 N/A
1:35 am 01:35 Clear 39 3.8 28 -2.5 64 64 SE 5 7 30.09 1019 10 16.0934 N/A
1:55 am 01:55 Clear 38 3.2 27 -2.6 66 66 SE 3 6 30.12 1020 10 16.0934 N/A
2:15 am 02:15 Clear 39 3.8 28 -2.3 65 65 SSE 3 6 30.09 1019 10 16.0934 N/A
2:35 am 02:35 Clear 38 3.5 28 -2.2 67 67 SSE 5 7 30.09 1019 10 16.0934 N/A
2:55 am 02:55 Clear 37 2.9 28 -2.3 69 69 SSE 5 7 30.12 1020 10 16.0934 N/A
3:15 am 03:15 Clear 36 2.3 28 -2.5 71 71 S 5 7 30.12 1020 10 16.0934 N/A
3:35 am 03:35 Clear 36 2 28 -2.3 73 73 SSE 3 6 30.12 1020 10 16.0934 N/A
3:55 am 03:55 Clear 36 2.2 28 -2.1 74 74 SE 5 7 30.12 1020 10 16.0934 N/A
4:15 am 04:15 Clear 36 2.3 28 -2 74 74 Calm 30.12 1020 10 16.0934 N/A
4:35 am 04:35 Clear 33 0.4 26 -3.1 78 78 ENE 5 7 30.15 1021 10 16.0934 N/A
4:55 am 04:55 Clear 32 0 26 -3.2 79 79 Calm 30.15 1021 10 16.0934 N/A
5:15 am 05:15 Clear 31 -0.7 26 -3.6 81 81 NE 3 6 30.15 1021 10 16.0934 N/A
5:35 am 05:35 Clear 31 -0.7 25 -3.7 80 80 E 3 6 30.15 1021 10 16.0934 N/A
5:55 am 05:55 Clear 30 -0.9 25 -3.8 81 81 Calm 30.15 1021 10 16.0934 N/A
6:15 am 06:15 Clear 31 -0.6 26 -3.5 81 81 Calm 30.15 1021 10 16.0934 N/A
6:35 am 06:35 Clear 31 -0.5 26 -3.4 81 81 Calm 30.15 1021 10 16.0934 N/A
6:55 am 06:55 Clear 30 -1 25 -3.9 81 81 Calm 30.15 1021 10 16.0934 N/A
7:15 am 07:15 Partly Cloudy 31 -0.7 26 -3.5 82 82 NW 3 6 30.15 1021 7 11.26538 N/A
7:35 am 07:35 Partly Cloudy 31 -0.3 27 -3 82 82 NW 6 9 30.15 1021 7 11.26538 N/A
7:55 am 07:55 Sunny 32 0.1 27 -2.6 82 82 NW 3 6 30.15 1021 10 16.0934 N/A
8:15 am 08:15 Hazy 33 0.5 28 -2.5 81 81 Calm 30.12 1020 5 8.0467 N/A
8:35 am 08:35 Hazy 34 1 28 -2 81 81 Calm 30.12 1020 4 6.43736 N/A
8:55 am 08:55 Mostly Cloudy 35 1.6 29 -1.7 79 79 Calm 30.12 1020 10 16.0934 N/A
9:35 am 09:35 Partly Cloudy 38 3.4 30 -1.1 73 73 W 3 6 30.15 1021 10 16.0934 N/A
9:55 am 09:55 Sunny 40 4.3 31 -0.8 70 70 WSW 3 6 30.15 1021 10 16.0934 N/A
10:15 am 10:15 Sunny 42 5.3 32 0 69 69 WSW 6 9 30.12 1020 10 16.0934 N/A
10:35 am 10:35 Sunny 43 6 32 0.1 66 66 W 7 11 30.12 1020 10 16.0934 N/A
10:55 am 10:55 Partly Cloudy 44 6.4 33 0.6 67 67 W 6 9 30.12 1020 10 16.0934 N/A
11:15 am 11:15 Mostly Cloudy 45 7 33 0.7 65 65 W 8 13 30.12 1020 10 16.0934 N/A
11:35 am 11:35 Mostly Cloudy 46 8 34 0.9 61 61 WSW 8 13 30.09 1019 10 16.0934 N/A
11:55 am 11:55 Cloudy 48 9 35 1.4 59 59 WNW 9 15 30.09 1019 10 16.0934 N/A
12:15 pm 12:15 Mostly Cloudy 50 9.8 33 0.8 54 54 WNW 12 19 30.09 1019 10 16.0934 N/A
12:35 pm 12:35 Mostly Cloudy 52 10.9 33 0.4 49 49 WNW 9 15 30.06 1018 10 16.0934 N/A
12:55 pm 12:55 Cloudy 53 11.6 31 -0.3 44 44 NW 9 15 30.06 1018 10 16.0934 N/A
1:15 pm 13:15 Mostly Cloudy 54 12.2 31 -0.6 42 42 NNW 8 13 30.06 1018 10 16.0934 N/A
1:35 pm 13:35 Partly Cloudy 55 12.6 30 -0.9 40 40 WNW 6 9 30.06 1018 10 16.0934 N/A
1:55 pm 13:55 Mostly Cloudy 56 13.6 30 -1.3 36 36 N 3 6 30 1016 10 16.0934 N/A
2:15 pm 14:15 Partly Cloudy 57 14.1 30 -1.3 35 35 NW 6 9 30 1016 10 16.0934 N/A
2:35 pm 14:35 Sunny 58 14.6 30 -1 34 34 WNW 7 11 30 1016 10 16.0934 N/A
2:55 pm 14:55 Sunny 60 15.4 30 -1.1 32 32 WNW 9 15 30 1016 10 16.0934 N/A
3:15 pm 15:15 Sunny 61 16 30 -1 31 31 NNW 5 7 30 1016 10 16.0934 N/A
3:35 pm 15:35 Partly Cloudy 61 16.1 30 -1.1 31 31 SSW 7 11 30 1016 10 16.0934 N/A
3:55 pm 15:55 Mostly Cloudy 63 17 30 -1 30 30 WNW 9 15 29.94 1014 10 16.0934 N/A
4:15 pm 16:15 Partly Cloudy 64 17.6 29 -1.5 27 27 W 8 13 29.94 1014 10 16.0934 N/A
4:35 pm 16:35 Partly Cloudy 65 18.6 28 -2 25 25 WNW 14 22 29.94 1014 10 16.0934 N/A
4:55 pm 16:55 Mostly Cloudy 66 19 26 -3.2 22 22 NW 17 28 29.94 1014 10 16.0934 N/A
5:15 pm 17:15 Partly Cloudy 65 18.5 24 -4.5 21 21 NW 10 17 29.94 1014 10 16.0934 N/A
5:35 pm 17:35 Sunny 65 18.5 23 -4.9 20 20 NW 12 19 29.94 1014 10 16.0934 N/A
5:55 pm 17:55 Sunny 65 18.4 23 -5 20 20 NNW 14 22 29.94 1014 10 16.0934 N/A
6:15 pm 18:15 Sunny 65 18.3 23 -5.2 20 20 NW 13 20 29.94 1014 10 16.0934 N/A
6:35 pm 18:35 Sunny 64 17.6 21 -5.9 20 20 NW 12 19 29.94 1014 10 16.0934 N/A
6:55 pm 18:55 Sunny 64 18 23 -5.1 20 20 NW 7 11 29.94 1014 10 16.0934 N/A
7:15 pm 19:15 Sunny 63 17 22 -5.3 21 21 NW 8 13 29.94 1014 10 16.0934 N/A
7:35 pm 19:35 Sunny 59 14.8 22 -5.3 25 25 NW 9 15 29.97 1015 10 16.0934 N/A
7:55 pm 19:55 Clear 55 12.5 22 -5.8 28 28 NNW 10 17 30.03 1017 10 16.0934 N/A
8:15 pm 20:15 Clear 49 9.7 21 -6.1 33 33 N 9 15 30.06 1018 10 16.0934 N/A
8:35 pm 20:35 Clear 46 7.7 20 -6.7 36 36 NNW 7 11 30.06 1018 10 16.0934 N/A
8:55 pm 20:55 Clear 45 7.1 19 -7.4 35 35 NNW 6 9 30.09 1019 10 16.0934 N/A
9:15 pm 21:15 Clear 43 6.1 18 -7.6 37 37 N 7 11 30.09 1019 10 16.0934 N/A
9:35 pm 21:35 Clear 41 4.8 19 -7.2 42 42 NNW 5 7 30.09 1019 7 11.26538 N/A
9:55 pm 21:55 Clear 40 4.7 20 -6.8 43 43 W 7 11 30.12 1020 10 16.0934 N/A
10:15 pm 22:15 Clear 38 3.6 19 -7.1 46 46 WSW 5 7 30.15 1021 10 16.0934 N/A
10:35 pm 22:35 Clear 38 3.6 20 -6.9 47 47 Calm 30.15 1021 10 16.0934 N/A
10:55 pm 22:55 Clear 37 2.8 20 -6.5 51 51 Calm 30.15 1021 10 16.0934 N/A
11:15 pm 23:15 Clear 36 2.4 20 -6.8 51 51 Calm 30.18 1022 10 16.0934 N/A
11:35 pm 23:35 Clear 35 1.6 20 -6.6 55 55 W 3 6 30.18 1022 10 16.0934 N/A
11:55 pm 23:55 Clear 34 1 20 -6.6 57 57 Calm 30.21 1023 10 16.0934 N/A

Powered by AerisWeather